Location: Arroyo Grande
(40.2671°N, 4.2512°W)
Time: 01:19:08
(UTC+00:00)

Cosmos 2278 Rocket - Pass Details

Date: 28 September 2023
Orbit: 842 x 844 km, 71.0° (Epoch: 03 December)

Event Time Altitude Azimuth Distance (km) Brightness Sun altitude
Rises 19:57:23 0° 339° (NNW) 3,410 5.9 -22.1°
Reaches altitude 10° 19:59:52 10° 342° (NNW) 2,471 5.1 -22.5°
Maximum altitude 20:05:31 66° 65° (ENE) 916 2.1 -23.5°
Enters shadow 20:06:23 58° 111° (ESE) 981 2.1 -23.7°
